{"data":{"norad_id":47260,"epoch":"2026-05-25T03:30:06.962688Z","epoch_age_seconds":65553,"freshness":"FRESH","line1":"1 47260U 20100C   26145.14591392 -.00000401  00000+0 -11510-2 0  9990","line2":"2 47260  87.8959 355.2246 0001716  77.8972 282.2349 13.12442449261709","mean_motion":13.12442449,"eccentricity":0.0001716,"inclination_deg":87.8959,"raan_deg":355.2246,"arg_perigee_deg":77.8972,"mean_anomaly_deg":282.2349,"bstar":-0.001151,"rev_number":26170,"period_min":109.71909671904,"perigee_km":1212.422652307,"apogee_km":1215.0281794882,"semimajor_km":7591.8624158976,"source":"CELESTRAK","updated_at":"2026-05-25T13:38:22.377936Z"}}